DW6340 Weather Reports


Display with metric or nautical units.
time (UTC)temp
F
wind
direction
speed
MPH
gust
MPH
rain 1hr
in
rain 24hr
in
rain mn
in
humidity
%
barometer
mb
20200122110131 21 33 1.0 5.0 0.00 0.03 0.00 91 1011.1
20200122104615 21 33 0.0 5.0 0.00 0.03 0.00 91 1011.1
20200122103216 21 33 1.0 5.0 0.00 0.03 0.00 91 1011.2
20200122101649 21 32 0.0 5.0 0.00 0.03 0.00 91 1011.2
20200122100105 22 32 0.0 4.0 0.00 0.03 0.00 91 1011.2
20200122094651 21 32 1.0 6.0 0.00 0.03 0.00 91 1011.2
20200122093151 22 29 1.0 4.0 0.00 0.03 0.00 91 1011.1
20200122091620 22 26 0.0 5.0 0.00 0.03 0.00 91 1010.9
20200122090103 22 46 0.0 4.0 0.00 0.03 0.00 91 1010.7
20200122084558 22 46 1.0 5.0 0.00 0.03 0.00 91 1010.4
20200122083236 23 46 0.0 4.0 0.00 0.03 0.00 91 1010.1
20200122081705 23 46 0.0 4.0 0.00 0.03 0.00 91 1010.2
20200122080152 23 47 0.0 4.0 0.00 0.03 0.00 91 1010.0
20200122074644 23 47 0.0 4.0 0.00 0.03 0.00 90 1010.0
20200122073435 23 47 0.0 4.0 0.00 0.03 0.00 91 1010.1
20200122071610 24 48 1.0 3.0 0.00 0.03 0.00 91 1010.2
20200122070151 24 48 0.0 2.0 0.00 0.03 0.00 91 1010.2
20200122064618 24 48 0.0 3.0 0.00 0.03 0.03 91 1010.2
20200122063051 25 49 0.0 1.0 0.00 0.03 0.03 91 1010.2
20200122061605 25 49 0.0 2.0 0.00 0.03 0.03 91 1010.3
20200122060129 25 49 0.0 3.0 0.00 0.03 0.03 91 1010.3
20200122054619 25 49 0.0 4.0 0.00 0.03 0.03 91 1010.4
20200122053037 26 49 0.0 3.0 0.00 0.03 0.03 91 1010.3
20200122051558 26 49 0.0 0.0 0.00 0.03 0.03 91 1010.2
20200122050051 26 49 0.0 2.0 0.00 0.03 0.03 91 1010.2
20200122044537 26 49 0.0 0.0 0.00 0.03 0.03 90 1010.3
20200122043029 26 49 0.0 2.0 0.00 0.03 0.03 91 1010.2
20200122041554 26 49 0.0 3.0 0.00 0.03 0.03 91 1010.4
20200122040108 26 49 0.0 2.0 0.00 0.03 0.03 91 1010.4
20200122034608 26 49 0.0 2.0 0.00 0.03 0.03 90 1010.2
20200122033033 26 49 0.0 2.0 0.00 0.03 0.03 90 1010.3
20200122031556 26 49 0.0 1.0 0.00 0.03 0.03 90 1010.4
20200122030053 26 49 0.0 3.0 0.00 0.03 0.03 90 1010.5
20200122024557 27 49 0.0 2.0 0.00 0.03 0.03 90 1010.4
20200122023025 27 49 0.0 1.0 0.00 0.03 0.03 90 1010.6
20200122021603 27 49 0.0 1.0 0.00 0.03 0.03 89 1010.7
20200122020028 27 49 0.0 3.0 0.00 0.03 0.03 89 1010.8
20200122014556 27 49 0.0 2.0 0.00 0.03 0.03 89 1011.0
20200122013021 28 49 0.0 3.0 0.00 0.03 0.03 88 1011.0
20200122011620 28 49 0.0 2.0 0.00 0.03 0.03 88 1011.1
20200122010107 28 49 0.0 3.0 0.00 0.03 0.03 88 1011.0
20200122004519 28 49 0.0 2.0 0.00 0.03 0.03 87 1011.0
20200122003050 28 49 0.0 4.0 0.00 0.03 0.03 88 1011.0
20200122001520 29 49 1.0 3.0 0.00 0.03 0.03 87 1011.1
20200122000047 29 49 0.0 4.0 0.00 0.03 0.03 86 1011.2
20200121234538 30 49 0.0 4.0 0.00 0.03 0.03 85 1011.3
20200121233016 31 49 0.0 5.0 0.00 0.03 0.03 83 1011.4
20200121231533 31 49 0.0 5.0 0.00 0.03 0.03 81 1011.4
20200121230046 32 49 0.0 3.0 0.00 0.03 0.03 79 1011.4
20200121224521 32 49 0.0 3.0 0.00 0.03 0.03 80 1011.4
20200121223009 32 49 0.0 3.0 0.00 0.03 0.03 80 1011.5
20200121221520 31 49 0.0 4.0 0.00 0.03 0.03 81 1011.4
20200121220001 31 49 0.0 3.0 0.01 0.03 0.03 80 1011.6
20200121214552 31 49 0.0 2.0 0.01 0.03 0.03 80 1011.5
20200121213035 31 49 0.0 2.0 0.01 0.03 0.03 79 1011.3
20200121211506 31 49 0.0 3.0 0.01 0.03 0.03 78 1011.3
20200121210152 32 49 0.0 1.0 0.02 0.03 0.03 79 1011.5
20200121204635 32 49 1.0 5.0 0.01 0.05 0.02 79 1011.5
20200121203110 32 49 0.0 2.0 0.01 0.05 0.02 81 1012.0
20200121201717 31 47 0.0 5.0 0.01 0.05 0.02 79 1012.4
20200121200115 31 138 0.0 3.0 0.01 0.05 0.02 75 1012.9
20200121194552 32 167 0.0 3.0 0.00 0.55 0.01 71 1013.2
20200121193228 33 167 0.0 2.0 0.01 0.55 0.01 67 1013.6
20200121191618 34 167 0.0 3.0 0.01 0.55 0.01 66 1013.8
20200121190155 34 167 0.0 0.0 0.01 0.55 0.01 64 1014.2
20200121184600 34 167 0.0 2.0 0.01 0.56 0.01 63 1014.6
20200121183211 34 168 0.0 0.0 0.01 0.56 0.01 61 1014.9
20200121181542 34 167 0.0 1.0 0.00 0.55 0.00 62 1015.4
20200121180021 33 168 0.0 1.0 0.00 0.55 0.00 63 1016.0
20200121174530 33 168 0.0 0.0 0.00 0.55 0.00 64 1016.2
20200121173011 32 168 0.0 2.0 0.00 0.55 0.00 66 1016.4
20200121171740 31 168 0.0 2.0 0.00 0.55 0.00 67 1016.8
20200121170247 30 168 0.0 1.0 0.00 0.55 0.00 70 1017.3
20200121164557 28 168 0.0 2.0 0.00 0.55 0.00 73 1017.6
20200121163056 27 168 0.0 2.0 0.00 0.55 0.00 75 1018.0
20200121161553 26 168 0.0 4.0 0.00 0.55 0.00 77 1018.2
20200121160119 25 168 0.0 1.0 0.00 0.55 0.00 80 1018.4
20200121154559 24 168 0.0 0.0 0.00 0.55 0.00 82 1018.7
20200121153122 22 168 0.0 0.0 0.00 0.55 0.00 84 1018.9
20200121151625 21 168 0.0 2.0 0.00 0.55 0.00 85 1019.1
20200121150028 21 168 0.0 2.0 0.00 0.55 0.00 84 1019.5
20200121144540 21 168 0.0 1.0 0.00 0.55 0.00 83 1019.6
20200121143026 21 168 0.0 0.0 0.00 0.55 0.00 83 1019.7
20200121141541 22 167 0.0 0.0 0.00 0.55 0.00 82 1019.7
20200121140026 22 168 0.0 0.0 0.00 0.55 0.00 78 1020.0
20200121134518 22 168 0.0 0.0 0.00 0.55 0.00 81 1020.0
20200121133008 22 168 0.0 0.0 0.00 0.55 0.00 78 1020.3
20200121131533 21 168 0.0 0.0 0.00 0.55 0.00 78 1020.6
20200121130003 22 167 0.0 0.0 0.00 0.55 0.00 77 1020.9
20200121124735 23 168 1.0 3.0 0.00 0.55 0.00 78 1020.9
20200121123233 23 168 0.0 0.0 0.00 0.55 0.00 79 1021.0
20200121121633 23 168 0.0 0.0 0.00 0.55 0.00 78 1021.4
20200121120144 23 168 0.0 2.0 0.00 0.55 0.00 78 1021.7
20200121114656 23 168 0.0 0.0 0.00 0.55 0.00 74 1021.9
20200121113250 23 168 0.0 0.0 0.00 0.55 0.00 73 1022.5
20200121111636 23 168 0.0 0.0 0.00 0.55 0.00 75 1023.0